User: anonymous   Login
Location: Unspecified
(0.0000°N, 0.0000°E)
Time: 03:31:01
(UTC+00:00)
Language:

USA 110 - Orbit

View from above orbital plane
View from above orbital plane
View from above satellite
View from above satellite

Ground track
Ground track

The orbit data is extracted from the following two-line orbital elements,

1 23567U 95022A   17146.07979596 0.00000000  00000-0  00000-0 0    05
2 23567  13.8125  39.4173 0056624  88.3776 272.2898  1.00270000    02
Epoch (UTC): 26 May 2017 01:54:54
Eccentricity: 0.0056624
inclination: 13.8125°
perigee height: 35548 km
apogee height: 36025 km
right ascension of ascending node: 39.4173°
argument of perigee: 88.3776°
revolutions per day: 1.00270000
mean anomaly at epoch: 272.2898°
orbit number at epoch: 0

The dashed part of the orbit path shows where the satellite is in the earth's shadow,  

DLR